Weather History for KJSV - December, 2012

Change the Weather History Date:

Thursday, December 20, 2012

  Actual Average Record
Temperature  
Mean Temperature 44 °F -  
Max Temperature 55 °F 50 °F 136 °F (2004)
Min Temperature 28 °F 30 °F 5 °F (1989)
Degree Days  
Heating Degree Days 22    
Moisture  
Dew Point 24 °F    
Average Humidity 52    
Maximum Humidity 77    
Minimum Humidity 32    
Precipitation  
Precipitation 0.00 in - - ()
Sea Level Pressure  
Sea Level Pressure 30.07 in    
Wind  
Wind Speed 20 mph (WNW)    
Max Wind Speed 34 mph    
Max Gust Speed 45 mph    
Visibility 10 miles    
Events      
Averages and records for this station are not official NWS values.
T = Trace of Precipitation, MM = Missing Value Source: NWS Daily Summary

Daily Weather History Graph

Daily Weather History Graph

Search for Another Location

Airport or City:

Trip Planner

Search our weather history database for the weather conditions in past years. The results will help you decide how hot, cold, wet, or windy it might be!

Date:

Astronomy

Dec. 20, 2012 Rise Set
Actual Time 7:24 AM CST 5:10 PM CST
Civil Twilight 6:55 AM CST 5:38 PM CST
Nautical Twilight 6:23 AM CST 6:10 PM CST
Astronomical Twilight 5:52 AM CST 6:41 PM CST
Moon 12:18 PM CST (12/20) 12:23 AM CST (12/20)
Length of Visible Light 10h 42m
Length of Day
9h 45m
First Quarter, 55% of the Moon is Illuminated
Dec 20
First Quarter
Dec 28
Full
Jan 4
Last Quarter
Jan 11
New
Jan 18
First Quarter

Hourly Weather History & Observations

Time (CST) Temp. Windchill Dew Point Humidity Pressure Visibility Wind Dir Wind Speed Gust Speed Precip Events Conditions
12:15 AM 55.4 °F - 48.2 °F 77% 29.54 in 10.0 mi WSW 9.2 mph - N/A   Overcast
12:35 AM 55.4 °F - 44.6 °F 67% 29.55 in 10.0 mi WSW 10.4 mph - N/A   Overcast
12:55 AM 55.4 °F - 35.6 °F 47% 29.57 in 10.0 mi West 19.6 mph 25.3 mph N/A   Scattered Clouds
1:15 AM 53.6 °F - 32.0 °F 44% 29.59 in 10.0 mi West 28.8 mph 36.8 mph N/A   Clear
1:35 AM 51.8 °F - 32.0 °F 47% 29.61 in 10.0 mi West 23.0 mph 40.3 mph N/A   Clear
1:55 AM 50.0 °F - 33.8 °F 54% 29.64 in 10.0 mi West 28.8 mph 40.3 mph N/A   Clear
2:15 AM 46.4 °F 38.5 °F 33.8 °F 62% 29.66 in 10.0 mi West 21.9 mph 32.2 mph N/A   Clear
2:35 AM 46.4 °F 39.2 °F 35.6 °F 66% 29.67 in 10.0 mi West 18.4 mph 31.1 mph N/A   Mostly Cloudy
2:55 AM 46.4 °F 36.5 °F 35.6 °F 66% 29.70 in 10.0 mi West 34.5 mph 42.6 mph N/A   Overcast
3:15 AM 44.6 °F 35.7 °F 35.6 °F 71% 29.71 in 10.0 mi West 24.2 mph 38.0 mph N/A   Overcast
3:35 AM 42.8 °F 33.3 °F 33.8 °F 70% 29.73 in 10.0 mi West 24.2 mph 44.9 mph N/A   Overcast
3:55 AM 42.8 °F 32.1 °F 32.0 °F 66% 29.76 in 10.0 mi West 31.1 mph 39.1 mph N/A   Overcast
4:15 AM 41.0 °F 31.6 °F 32.0 °F 70% 29.79 in 10.0 mi West 20.7 mph 41.4 mph N/A   Overcast
4:35 AM 39.2 °F 28.0 °F 30.2 °F 70% 29.81 in 10.0 mi West 26.5 mph 39.1 mph N/A   Overcast
4:55 AM 39.2 °F 28.3 °F 30.2 °F 70% 29.82 in 10.0 mi West 25.3 mph 38.0 mph N/A   Overcast
5:15 AM 39.2 °F 27.6 °F 30.2 °F 70% 29.85 in 10.0 mi WNW 28.8 mph 39.1 mph N/A   Overcast
5:35 AM 39.2 °F 27.6 °F 30.2 °F 70% 29.86 in 10.0 mi WNW 28.8 mph 36.8 mph N/A   Overcast
6:15 AM 39.2 °F 29.0 °F 30.2 °F 70% 29.89 in 10.0 mi WNW 21.9 mph 35.7 mph N/A   Overcast
6:35 AM 37.4 °F 24.8 °F 28.4 °F 70% 29.92 in 10.0 mi WNW 31.1 mph 39.1 mph N/A   Overcast
6:55 AM 37.4 °F 26.6 °F 28.4 °F 70% 29.94 in 10.0 mi WNW 21.9 mph 35.7 mph N/A   Overcast
7:15 AM 37.4 °F 25.4 °F 26.6 °F 65% 29.95 in 10.0 mi WNW 27.6 mph 39.1 mph N/A   Overcast
7:55 AM 37.4 °F 25.4 °F 26.6 °F 65% 29.99 in 10.0 mi NW 27.6 mph 42.6 mph N/A   Overcast
8:15 AM 37.4 °F 26.6 °F 28.4 °F 70% 30.01 in 10.0 mi NW 21.9 mph 43.7 mph N/A   Overcast
8:35 AM 37.4 °F 25.9 °F 28.4 °F 70% 30.02 in 10.0 mi WNW 25.3 mph 39.1 mph N/A   Overcast
8:55 AM 37.4 °F 25.4 °F 28.4 °F 70% 30.04 in 10.0 mi WNW 27.6 mph 34.5 mph N/A   Overcast
9:15 AM 37.4 °F 26.1 °F 28.4 °F 70% 30.06 in 10.0 mi WNW 24.2 mph 32.2 mph N/A   Overcast
9:35 AM 37.4 °F 27.2 °F 28.4 °F 70% 30.07 in 10.0 mi NW 19.6 mph 35.7 mph N/A   Overcast
9:55 AM 37.4 °F 26.1 °F 26.6 °F 65% 30.09 in 10.0 mi WNW 24.2 mph 36.8 mph N/A   Overcast
10:15 AM 39.2 °F 28.7 °F 26.6 °F 61% 30.10 in 10.0 mi NW 23.0 mph 29.9 mph N/A   Mostly Cloudy
10:35 AM 41.0 °F 30.5 °F 24.8 °F 53% 30.11 in 10.0 mi WNW 26.5 mph 35.7 mph N/A   Mostly Cloudy
10:55 AM 41.0 °F 30.2 °F 24.8 °F 53% 30.12 in 10.0 mi WNW 27.6 mph 36.8 mph N/A   Scattered Clouds
11:15 AM 41.0 °F 29.8 °F 23.0 °F 49% 30.13 in 10.0 mi WNW 29.9 mph 35.7 mph N/A   Scattered Clouds
11:35 AM 42.8 °F 33.3 °F 23.0 °F 46% 30.13 in 10.0 mi WNW 24.2 mph 35.7 mph N/A   Clear
11:55 AM 42.8 °F 33.1 °F 21.2 °F 42% 30.14 in 10.0 mi WNW 25.3 mph 34.5 mph N/A   Clear
12:15 PM 42.8 °F 33.3 °F 21.2 °F 42% 30.13 in 10.0 mi NW 24.2 mph 35.7 mph N/A   Clear
12:35 PM 42.8 °F 32.5 °F 19.4 °F 39% 30.14 in 10.0 mi WNW 28.8 mph 39.1 mph N/A   Clear
12:55 PM 42.8 °F 32.7 °F 19.4 °F 39% 30.15 in 10.0 mi NW 27.6 mph 35.7 mph N/A   Clear
1:15 PM 44.6 °F 35.9 °F 19.4 °F 37% 30.15 in 10.0 mi WNW 23.0 mph 28.8 mph N/A   Clear
1:35 PM 44.6 °F 35.7 °F 19.4 °F 37% 30.16 in 10.0 mi WNW 24.2 mph 29.9 mph N/A   Clear
1:55 PM 44.6 °F 35.7 °F 19.4 °F 37% 30.16 in 10.0 mi NW 24.2 mph 36.8 mph N/A   Clear
2:15 PM 46.4 °F 38.7 °F 19.4 °F 34% 30.17 in 10.0 mi NW 20.7 mph 33.4 mph N/A   Clear
2:35 PM 46.4 °F 37.5 °F 19.4 °F 34% 30.17 in 10.0 mi WNW 27.6 mph 34.5 mph N/A   Clear
2:55 PM 46.4 °F 39.0 °F 17.6 °F 32% 30.18 in 10.0 mi NW 19.6 mph 35.7 mph N/A   Clear
3:15 PM 46.4 °F 38.1 °F 17.6 °F 32% 30.19 in 10.0 mi NW 24.2 mph 34.5 mph N/A   Clear
3:35 PM 44.6 °F 36.4 °F 17.6 °F 34% 30.20 in 10.0 mi NW 20.7 mph 29.9 mph N/A   Clear
3:55 PM 44.6 °F 35.5 °F 17.6 °F 34% 30.22 in 10.0 mi WNW 25.3 mph 31.1 mph N/A   Clear
4:15 PM 44.6 °F 37.2 °F 17.6 °F 34% 30.23 in 10.0 mi WNW 17.3 mph 25.3 mph N/A   Clear
4:35 PM 44.6 °F 36.6 °F 17.6 °F 34% 30.24 in 10.0 mi WNW 19.6 mph 29.9 mph N/A   Clear
5:15 PM 42.8 °F 34.8 °F 17.6 °F 36% 30.26 in 10.0 mi NW 17.3 mph 24.2 mph N/A   Clear
5:35 PM 41.0 °F 32.8 °F 17.6 °F 39% 30.27 in 10.0 mi NW 16.1 mph 20.7 mph N/A   Clear
6:15 PM 39.2 °F 32.0 °F 15.8 °F 39% 30.28 in 10.0 mi WNW 11.5 mph - N/A   Clear
6:35 PM 39.2 °F 31.6 °F 15.8 °F 39% 30.29 in 10.0 mi WNW 12.7 mph - N/A   Clear
6:55 PM 39.2 °F 30.5 °F 14.0 °F 36% 30.30 in 10.0 mi NW 16.1 mph - N/A   Clear
7:15 PM 37.4 °F 30.3 °F 14.0 °F 38% 30.30 in 10.0 mi WNW 10.4 mph - N/A   Clear
7:35 PM 37.4 °F 30.8 °F 15.8 °F 41% 30.31 in 10.0 mi WNW 9.2 mph - N/A   Clear
7:55 PM 37.4 °F 29.8 °F 14.0 °F 38% 30.32 in 10.0 mi WNW 11.5 mph 16.1 mph N/A   Clear
8:15 PM 37.4 °F 30.8 °F 14.0 °F 38% 30.32 in 10.0 mi WNW 9.2 mph - N/A   Clear
8:35 PM 37.4 °F 30.8 °F 14.0 °F 38% 30.33 in 10.0 mi West 9.2 mph - N/A   Clear
8:55 PM 35.6 °F 28.0 °F 14.0 °F 41% 30.33 in 10.0 mi West 10.4 mph - N/A   Clear
9:15 PM 35.6 °F 28.6 °F 14.0 °F 41% 30.33 in 10.0 mi West 9.2 mph - N/A   Clear
9:35 PM 35.6 °F 28.6 °F 14.0 °F 41% 30.33 in 10.0 mi West 9.2 mph - N/A   Clear
9:55 PM 33.8 °F 27.0 °F 17.6 °F 52% 30.34 in 10.0 mi West 8.1 mph - N/A   Clear
10:15 PM 33.8 °F 27.0 °F 15.8 °F 48% 30.35 in 10.0 mi West 8.1 mph - N/A   Clear
10:35 PM 33.8 °F 27.7 °F 15.8 °F 48% 30.35 in 10.0 mi West 6.9 mph - N/A   Clear
10:55 PM 32.0 °F 28.7 °F 17.6 °F 55% 30.35 in 10.0 mi West 3.5 mph - N/A   Clear
11:15 PM 32.0 °F - 17.6 °F 55% 30.35 in 10.0 mi Calm Calm - N/A   Clear
11:35 PM 32.0 °F - 17.6 °F 55% 30.35 in 10.0 mi Calm Calm - N/A   Clear
11:55 PM 28.4 °F 24.6 °F 19.4 °F 69% 30.35 in 10.0 mi SSW 3.5 mph - N/A   Clear